KC5CPO Weather Reports


time (UTC)temp
F
wind
direction
speed
knots
gust
knots
rain 1hr
in
rain 24hr
in
rain mn
in
humidity
%
barometer
mb
20260509201422 99 203 1.7 3.5 0.00 0.00 0.00 29 1002.7
20260509200922 99 203 0.9 1.7 0.00 0.00 0.00 30 1002.7
20260509200421 98 203 0.9 1.7 0.00 0.00 0.00 33 1002.4
20260509195923 97 180 2.6 4.3 0.00 0.00 0.00 33 1002.7
20260509195422 95 225 2.6 3.5 0.00 0.00 0.00 31 1002.7
20260509194921 94 203 0.9 1.7 0.00 0.00 0.00 36 1002.7
20260509194228 98 180 2.6 3.5 0.00 0.00 0.00 34 1003.0
20260509193422 95 248 0.9 1.7 0.00 0.00 0.00 35 1003.0
20260509192924 94 203 0.9 1.7 0.00 0.00 0.00 36 1003.0
20260509192421 93 248 3.5 4.3 0.00 0.00 0.00 38 1003.0
20260509191922 94 248 2.6 4.3 0.00 0.00 0.00 40 1003.0
20260509191421 95 248 2.6 4.3 0.00 0.00 0.00 40 1003.0
20260509190921 94 225 1.7 2.6 0.00 0.00 0.00 41 1003.0
20260509190422 93 248 5.2 6.1 0.00 0.00 0.00 39 1003.0
20260509185921 93 248 0.0 0.9 0.00 0.00 0.00 39 1003.0
20260509185421 94 180 2.6 3.5 0.00 0.00 0.00 40 1003.0
20260509184921 93 180 1.7 1.7 0.00 0.00 0.00 39 1003.0
20260509184421 92 225 0.9 1.7 0.00 0.00 0.00 38 1003.0
20260509183922 92 248 3.5 4.3 0.00 0.00 0.00 39 1003.0
20260509183422 93 180 2.6 4.3 0.00 0.00 0.00 39 1003.0
20260509182921 91 248 1.7 3.5 0.00 0.00 0.00 43 1003.0
20260509182421 91 248 2.6 4.3 0.00 0.00 0.00 44 1003.0
20260509181922 92 225 2.6 4.3 0.00 0.00 0.00 45 1003.0
20260509181421 91 203 1.7 2.6 0.00 0.00 0.00 45 1003.0
20260509180922 91 203 1.7 2.6 0.00 0.00 0.00 48 1003.4
20260509180421 91 248 1.7 2.6 0.00 0.00 0.00 44 1003.4
20260509175922 92 225 0.9 1.7 0.00 0.00 0.00 43 1003.4
20260509175421 90 180 2.6 3.5 0.00 0.00 0.00 48 1003.4
20260509174921 90 248 3.5 4.3 0.00 0.00 0.00 45 1003.4
20260509174421 89 180 1.7 2.6 0.00 0.00 0.00 48 1003.4
20260509173922 89 248 1.7 2.6 0.00 0.00 0.00 50 1003.4
20260509173421 90 203 4.3 4.3 0.00 0.00 0.00 47 1003.7
20260509172922 89 203 2.6 3.5 0.00 0.00 0.00 46 1003.7
20260509172421 88 203 2.6 3.5 0.00 0.00 0.00 48 1003.7
20260509171922 90 225 2.6 3.5 0.00 0.00 0.00 47 1003.7
20260509171421 88 248 1.7 1.7 0.00 0.00 0.00 50 1003.7
20260509170922 86 248 4.3 5.2 0.00 0.00 0.00 50 1004.1
20260509170423 87 203 5.2 7.8 0.00 0.00 0.00 47 1004.1
20260509165921 87 248 2.6 3.5 0.00 0.00 0.00 50 1003.7
20260509165422 87 248 4.3 5.2 0.00 0.00 0.00 48 1004.1
20260509164922 87 248 5.2 7.0 0.00 0.00 0.00 46 1004.1
20260509164421 87 203 3.5 4.3 0.00 0.00 0.00 46 1004.1
20260509163921 88 248 4.3 6.1 0.00 0.00 0.00 47 1004.1
20260509163422 87 248 3.5 4.3 0.00 0.00 0.00 47 1004.1
20260509162923 87 248 1.7 1.7 0.00 0.00 0.00 50 1004.1
20260509162421 86 225 0.9 1.7 0.00 0.00 0.00 48 1004.1
20260509161921 87 203 0.9 1.7 0.00 0.00 0.00 49 1004.1
20260509161421 86 248 2.6 2.6 0.00 0.00 0.00 49 1004.1
20260509160922 86 248 2.6 3.5 0.00 0.00 0.00 48 1004.1
20260509160422 88 203 0.9 1.7 0.00 0.00 0.00 49 1004.1
20260509155921 87 203 1.7 1.7 0.00 0.00 0.00 50 1004.1
20260509155421 86 225 0.9 1.7 0.00 0.00 0.00 52 1003.7
20260509154921 84 203 1.7 1.7 0.00 0.00 0.00 52 1004.1
20260509154421 83 225 0.9 1.7 0.00 0.00 0.00 53 1003.7
20260509153921 82 248 4.3 5.2 0.00 0.00 0.00 53 1003.7
20260509153421 84 248 2.6 4.3 0.00 0.00 0.00 54 1003.7
20260509152922 84 225 0.9 1.7 0.00 0.00 0.00 56 1003.7
20260509152422 83 248 0.9 1.7 0.00 0.00 0.00 56 1003.7
20260509151921 82 180 1.7 1.7 0.00 0.00 0.00 59 1003.4
20260509151422 81 225 2.6 3.5 0.00 0.00 0.00 60 1003.4
20260509150922 81 248 3.5 5.2 0.00 0.00 0.00 61 1003.4
20260509150421 81 248 4.3 5.2 0.00 0.00 0.00 62 1003.7
20260509145922 80 225 4.3 5.2 0.00 0.00 0.00 60 1003.7
20260509145421 80 248 2.6 4.3 0.00 0.00 0.00 64 1003.7
20260509144921 79 248 2.6 4.3 0.00 0.00 0.00 65 1003.4
20260509144421 78 248 2.6 3.5 0.00 0.00 0.00 65 1003.7
20260509143921 78 225 2.6 4.3 0.00 0.00 0.00 67 1003.7
20260509143422 77 225 2.6 2.6 0.00 0.00 0.00 71 1003.7
20260509142924 76 248 3.5 5.2 0.00 0.00 0.00 71 1003.7
20260509142022 75 203 1.7 2.6 0.00 0.00 0.00 77 1003.7
20260509141421 74 270 5.2 7.8 0.00 0.00 0.00 78 1003.7
20260509140921 73 270 4.3 6.1 0.00 0.00 0.00 79 1003.7
20260509140422 73 248 2.6 4.3 0.00 0.00 0.00 82 1003.7
20260509135921 72 248 2.6 4.3 0.00 0.00 0.00 81 1003.7
20260509135421 72 225 1.7 2.6 0.00 0.00 0.00 82 1003.7
20260509134921 72 270 1.7 1.7 0.00 0.00 0.00 81 1003.4
20260509134421 72 248 4.3 5.2 0.00 0.00 0.00 83 1003.7
20260509133921 72 270 6.1 9.6 0.00 0.00 0.00 81 1003.7
20260509133422 71 180 2.6 3.5 0.00 0.00 0.00 82 1003.7
20260509132921 71 248 4.3 4.3 0.00 0.00 0.00 82 1003.7
20260509132421 71 270 2.6 4.3 0.00 0.00 0.00 83 1003.4
20260509131921 71 270 2.6 2.6 0.00 0.00 0.00 82 1003.4
20260509131422 70 248 4.3 7.0 0.00 0.00 0.00 82 1003.4
20260509130921 70 225 1.7 2.6 0.00 0.00 0.00 84 1003.4
20260509130421 70 225 2.6 4.3 0.00 0.00 0.00 84 1003.4
20260509125921 70 270 2.6 3.5 0.00 0.00 0.00 84 1003.0
20260509125422 70 270 5.2 8.7 0.00 0.00 0.00 84 1003.4
20260509124922 70 270 2.6 3.5 0.00 0.00 0.00 84 1003.4
20260509124422 69 270 0.9 1.7 0.00 0.00 0.00 85 1003.0
20260509123921 69 248 2.6 3.5 0.00 0.00 0.00 84 1003.0
20260509123421 69 270 2.6 2.6 0.00 0.00 0.00 83 1003.4
20260509122921 68 248 0.9 1.7 0.00 0.00 0.00 86 1003.0
20260509122421 67 203 0.0 0.0 0.00 0.00 0.00 88 1003.0
20260509121922 66 203 1.7 1.7 0.00 0.00 0.00 92 1003.0
20260509121422 65 203 0.0 0.0 0.00 0.00 0.00 94 1003.0
20260509120921 64 203 0.0 0.0 0.00 0.00 0.00 93 1003.0
20260509120422 65 203 0.0 0.0 0.00 0.00 0.00 93 1003.0
20260509115927 65 203 0.9 0.9 0.00 0.00 0.00 93 1003.0
20260509115422 65 248 0.0 0.0 0.00 0.00 0.00 92 1003.0
20260509114921 65 225 0.0 0.9 0.00 0.00 0.00 91 1003.0
20260509114421 66 203 2.6 2.6 0.00 0.00 0.00 90 1003.4
20260509113924 66 203 2.6 2.6 0.00 0.00 0.00 89 1003.0
20260509113421 67 225 0.9 1.7 0.00 0.00 0.00 87 1003.0
20260509112921 67 203 2.6 2.6 0.00 0.00 0.00 86 1003.0
20260509112421 68 203 1.7 2.6 0.00 0.00 0.00 85 1002.7
20260509111922 69 248 0.0 0.0 0.00 0.00 0.00 82 1003.0
20260509111421 69 270 1.7 1.7 0.00 0.00 0.00 81 1002.7
20260509110922 69 270 1.7 2.6 0.00 0.00 0.00 81 1002.7
20260509110422 70 203 0.9 1.7 0.00 0.00 0.00 83 1003.0
20260509105921 70 270 6.1 8.7 0.00 0.00 0.00 84 1003.0
20260509105422 70 270 2.6 5.2 0.00 0.00 0.00 91 1002.7
20260509104921 70 270 2.6 2.6 0.00 0.00 0.00 93 1002.7
20260509104421 70 248 1.7 1.7 0.00 0.00 0.00 93 1003.0
20260509103922 70 270 3.5 6.1 0.00 0.00 0.00 94 1002.7
20260509103421 70 248 2.6 5.2 0.00 0.00 0.00 94 1002.7
20260509102922 70 270 4.3 7.0 0.00 0.00 0.00 95 1002.7
20260509102421 70 270 2.6 4.3 0.00 0.00 0.00 95 1002.7
20260509101923 70 248 0.9 1.7 0.00 0.00 0.00 96 1002.4
20260509101422 69 270 2.6 3.5 0.00 0.00 0.00 95 1001.4
20260509100923 70 248 1.7 2.6 0.00 0.00 0.00 95 1001.0
20260509100422 70 203 1.7 3.5 0.00 0.00 0.00 95 1000.7
20260509095921 70 203 2.6 3.5 0.00 0.00 0.00 95 1000.3
20260509095421 69 180 4.3 6.1 0.00 0.00 0.00 95 1000.3
20260509094921 69 248 2.6 3.5 0.00 0.00 0.00 95 1000.3
20260509094422 69 225 1.7 3.5 0.00 0.00 0.00 95 1000.0
20260509093922 69 203 4.3 6.1 0.00 0.00 0.00 96 1000.0
20260509093421 69 180 7.0 10.4 0.00 0.00 0.00 96 999.7
20260509092921 69 270 3.5 4.3 0.00 0.00 0.00 96 1000.0
20260509092422 69 180 1.7 2.6 0.00 0.00 0.00 95 1000.3
20260509091922 69 225 4.3 8.7 0.00 0.00 0.00 96 1000.3
20260509091421 69 203 3.5 6.1 0.00 0.00 0.00 96 1000.3
20260509090923 69 203 4.3 7.0 0.00 0.00 0.00 97 1000.7
20260509090421 69 203 1.7 1.7 0.00 0.00 0.00 97 1000.7
20260509085436 68 203 0.9 1.7 0.00 0.00 0.00 97 1001.0
20260509084922 68 203 1.7 2.6 0.00 0.00 0.00 97 1001.4
20260509084421 68 225 2.6 3.5 0.00 0.00 0.00 97 1001.4
20260509083921 68 225 2.6 4.3 0.00 0.00 0.00 97 1001.4
20260509083421 68 225 4.3 5.2 0.00 0.00 0.00 97 1001.4
20260509082921 68 225 2.6 3.5 0.00 0.00 0.00 97 1001.7
20260509082421 68 203 1.7 1.7 0.00 0.00 0.00 97 1002.0
20260509081922 68 225 1.7 2.6 0.00 0.00 0.00 97 1002.0
20260509081421 68 203 1.7 1.7 0.00 0.00 0.00 97 1002.0
20260509080922 68 248 1.7 1.7 0.00 0.00 0.00 97 1002.4
20260509080421 68 203 1.7 1.7 0.00 0.00 0.00 97 1002.4
20260509075922 68 203 1.7 4.3 0.00 0.00 0.00 97 1002.7
20260509075421 68 180 1.7 1.7 0.00 0.00 0.00 97 1003.0
20260509074922 68 225 1.7 2.6 0.00 0.00 0.00 96 1003.7
20260509074424 68 180 1.7 1.7 0.00 0.00 0.00 96 1003.7
20260509073921 68 180 1.7 1.7 0.00 0.00 0.00 96 1004.1
20260509073422 69 203 2.6 4.3 0.00 0.00 0.00 96 1004.1
20260509072923 69 225 2.6 3.5 0.00 0.00 0.00 97 1005.1
20260509072421 68 270 2.6 3.5 0.00 0.00 0.00 97 1005.1
20260509071922 68 203 5.2 7.8 0.00 0.00 0.00 98 1004.7
20260509071422 68 225 1.7 3.5 0.00 0.00 0.00 98 1004.7
20260509070921 67 270 1.7 2.6 0.00 0.00 0.00 98 1004.7
20260509070422 67 270 1.7 2.6 0.00 0.00 0.00 98 1004.7
20260509065921 67 270 1.7 2.6 0.00 0.00 0.00 98 1004.4
20260509065421 67 203 0.9 1.7 0.00 0.00 0.00 98 1005.1
20260509064922 67 270 0.0 0.0 0.00 0.00 0.00 98 1004.7
20260509064421 67 270 0.9 1.7 0.00 0.00 0.00 99 1005.1
20260509063921 67 248 2.6 2.6 0.00 0.00 0.00 99 1004.7
20260509063421 67 248 2.6 2.6 0.00 0.00 0.00 99 1004.7
20260509062921 67 270 0.0 0.0 0.00 0.00 0.00 99 1004.4
20260509062421 67 248 2.6 2.6 0.00 0.00 0.00 99 1004.1
20260509061921 66 270 1.7 1.7 0.00 0.00 0.00 99 1004.4
20260509061422 66 270 0.9 1.7 0.00 0.00 0.00 99 1004.4
20260509060924 65 270 0.9 1.7 0.00 0.00 0.00 98 1004.1
20260509060421 65 203 0.0 0.0 0.00 0.00 0.00 98 1004.1
20260509055922 65 203 0.0 0.9 0.00 0.00 0.00 98 1003.7
20260509055421 66 270 0.0 0.0 0.00 0.00 0.00 98 1003.7
20260509054921 66 270 0.9 1.7 0.00 0.00 0.00 98 1003.4
20260509054422 66 270 0.9 1.7 0.00 0.00 0.00 98 1003.0
20260509053922 66 270 0.0 0.0 0.00 0.00 0.00 98 1003.4
20260509053422 66 270 0.0 0.0 0.00 0.00 0.00 98 1003.4
20260509052921 66 270 0.0 0.0 0.00 0.00 0.00 97 1003.4
20260509052421 66 270 0.0 0.0 0.00 0.00 0.00 97 1003.4
20260509051921 67 270 0.0 0.9 0.00 0.00 0.00 97 1003.4
20260509051421 67 270 0.0 0.0 0.00 0.00 0.00 97 1003.4
20260509050921 67 270 0.0 0.0 0.00 0.00 0.00 97 1003.4
20260509050422 67 248 0.0 0.0 0.00 0.00 0.00 97 1003.0
20260509045921 67 203 0.9 1.7 0.00 0.00 0.01 97 1003.4
20260509045422 67 203 0.0 0.0 0.00 0.00 0.01 96 1003.7
20260509044922 67 203 1.7 1.7 0.00 0.00 0.01 96 1003.7
20260509044421 68 203 0.9 1.7 0.00 0.00 0.01 96 1003.7
20260509043922 68 248 0.0 0.0 0.00 0.00 0.01 95 1003.7
20260509043421 68 248 0.0 0.0 0.00 0.00 0.01 94 1003.7
20260509042925 69 270 0.0 0.9 0.00 0.00 0.01 94 1003.7
20260509042421 69 248 0.0 0.0 0.00 0.00 0.01 94 1003.7
20260509041921 69 270 0.0 0.9 0.00 0.00 0.01 94 1003.0
20260509041421 69 203 2.6 3.5 0.00 0.00 0.01 94 1003.0
20260509040922 69 270 0.9 1.7 0.00 0.00 0.01 93 1003.0
20260509040421 70 225 2.6 3.5 0.00 0.00 0.01 93 1002.7
20260509035921 70 180 1.7 2.6 0.00 0.00 0.01 93 1003.0
20260509035422 70 203 0.9 1.7 0.00 0.00 0.01 92 1003.0
20260509034921 70 248 0.9 0.9 0.00 0.00 0.01 92 1003.0
20260509034422 70 248 0.9 1.7 0.00 0.00 0.01 91 1003.0
20260509033921 70 203 1.7 1.7 0.00 0.00 0.01 91 1003.0
20260509033421 71 248 0.0 0.9 0.00 0.00 0.01 91 1003.0
20260509032924 71 270 1.7 2.6 0.00 0.00 0.01 91 1002.7
20260509032421 71 180 1.7 1.7 0.00 0.00 0.01 90 1002.7
20260509031924 71 270 0.9 1.7 0.00 0.00 0.01 90 1002.7
20260509031423 71 203 1.7 2.6 0.00 0.00 0.01 90 1002.7
20260509030921 71 180 0.9 1.7 0.00 0.00 0.01 90 1002.7
20260509030422 71 180 3.5 4.3 0.00 0.00 0.01 90 1002.4
20260509025921 71 180 1.7 3.5 0.00 0.00 0.01 90 1002.4
20260509025421 71 225 1.7 2.6 0.00 0.00 0.01 89 1002.4
20260509024921 72 225 0.9 1.7 0.00 0.00 0.01 89 1002.4
20260509024421 72 180 1.7 2.6 0.00 0.00 0.01 89 1002.4
20260509023921 72 203 0.0 0.0 0.00 0.00 0.01 89 1002.4
20260509023422 72 180 0.9 1.7 0.00 0.00 0.01 89 1002.4
20260509022921 72 203 0.9 1.7 0.00 0.00 0.01 89 1002.4
20260509022421 72 225 0.9 1.7 0.00 0.00 0.01 89 1002.4
20260509021921 72 248 0.0 0.9 0.00 0.00 0.01 89 1002.4
20260509021421 72 180 0.0 0.9 0.00 0.00 0.01 89 1002.4
20260509020923 72 203 0.0 0.0 0.00 0.00 0.01 89 1002.4
20260509020421 72 203 0.0 0.0 0.00 0.00 0.01 88 1002.4
20260509015922 72 203 0.0 0.0 0.00 0.00 0.01 88 1002.4
20260509015422 72 225 0.0 0.9 0.00 0.00 0.01 88 1002.0
20260509014921 72 248 0.0 0.9 0.00 0.00 0.01 87 1002.4
20260509014422 72 248 0.0 0.0 0.00 0.00 0.01 88 1002.0
20260509013921 72 248 0.0 0.0 0.00 0.00 0.01 87 1002.0
20260509013421 72 248 0.0 0.0 0.00 0.00 0.01 87 1002.4
20260509012921 72 225 0.9 1.7 0.00 0.00 0.01 87 1002.0
20260509012422 73 180 0.0 0.9 0.00 0.00 0.01 87 1002.0
20260509011922 73 203 3.5 4.3 0.00 0.00 0.01 86 1002.0
20260509011421 73 203 0.0 0.0 0.00 0.00 0.01 85 1001.7
20260509010921 73 203 0.9 1.7 0.00 0.00 0.01 85 1001.7
20260509010421 73 248 0.0 0.9 0.00 0.00 0.01 85 1001.7
20260509005922 74 203 0.9 1.7 0.00 0.00 0.01 84 1001.7
20260509005422 74 180 0.0 0.9 0.00 0.00 0.01 84 1001.7
20260509004921 74 203 0.9 1.7 0.00 0.00 0.01 84 1001.4
20260509004422 74 225 0.0 0.9 0.00 0.00 0.01 84 1001.4
20260509003921 74 225 1.7 2.6 0.00 0.00 0.01 83 1001.7
20260509003423 75 203 0.9 1.7 0.00 0.00 0.01 83 1001.7
20260509002922 75 225 0.9 0.9 0.00 0.00 0.01 82 1001.7
20260509002421 75 270 0.0 0.9 0.00 0.00 0.01 81 1001.7
20260509001922 76 225 0.0 0.9 0.00 0.00 0.01 81 1001.7
20260509001421 76 248 0.0 0.0 0.00 0.00 0.01 81 1001.7
20260509000921 76 203 0.9 1.7 0.00 0.00 0.01 81 1001.7
20260509000421 76 225 0.9 1.7 0.00 0.00 0.01 80 1001.7
20260508235921 76 248 0.9 1.7 0.00 0.00 0.01 80 1001.7
20260508235422 77 225 0.0 0.9 0.00 0.00 0.01 78 1001.4
20260508234921 76 225 0.9 1.7 0.00 0.00 0.01 78 1001.7
20260508234421 77 270 0.0 0.9 0.00 0.00 0.01 78 1001.4
20260508233921 77 180 0.9 1.7 0.00 0.00 0.01 79 1001.4
20260508233421 77 203 0.9 1.7 0.00 0.00 0.01 77 1001.4
20260508232921 78 203 2.6 4.3 0.00 0.00 0.01 75 1001.4
20260508232421 78 225 1.7 1.7 0.00 0.00 0.01 75 1001.7
20260508231921 78 248 0.0 0.9 0.00 0.00 0.01 75 1001.7
20260508231421 78 203 2.6 3.5 0.00 0.00 0.01 74 1001.4
20260508230922 78 180 3.5 4.3 0.00 0.00 0.01 74 1001.7
20260508230421 78 180 2.6 3.5 0.00 0.00 0.01 74 1001.7
20260508225921 78 203 1.7 1.7 0.00 0.00 0.01 75 1001.4
20260508225421 77 225 1.7 2.6 0.00 0.00 0.01 75 1001.7
20260508224921 76 203 4.3 6.1 0.00 0.00 0.01 76 1001.7
20260508224421 76 203 3.5 4.3 0.00 0.00 0.01 75 1001.7
20260508223922 77 248 1.7 1.7 0.00 0.00 0.01 74 1001.7
20260508223422 78 203 2.6 3.5 0.00 0.00 0.01 74 1001.7
20260508222923 78 225 1.7 1.7 0.00 0.00 0.01 74 1001.7
20260508222421 78 180 1.7 2.6 0.00 0.00 0.01 72 1001.7
20260508221921 79 248 1.7 1.7 0.00 0.00 0.01 71 1001.7
20260508221422 79 225 1.7 3.5 0.00 0.00 0.01 72 1001.7
20260508220921 78 225 0.0 0.9 0.00 0.00 0.01 73 1002.0
20260508220421 77 203 1.7 2.6 0.00 0.00 0.01 73 1002.0
20260508215922 77 180 1.7 2.6 0.00 0.00 0.01 73 1002.0
20260508215421 76 203 0.9 1.7 0.00 0.00 0.01 74 1002.4
20260508214921 76 248 0.9 1.7 0.00 0.00 0.01 75 1002.4
20260508214422 75 248 0.0 0.9 0.00 0.00 0.01 76 1002.4
20260508213921 75 203 3.5 5.2 0.00 0.00 0.01 75 1002.4
20260508213423 75 248 0.9 1.7 0.00 0.00 0.01 76 1002.4
20260508212922 74 203 2.6 3.5 0.00 0.00 0.01 76 1002.7
20260508212421 74 248 3.5 3.5 0.00 0.00 0.01 77 1002.7
20260508211921 74 203 2.6 3.5 0.00 0.00 0.01 75 1002.7
20260508211422 73 203 2.6 3.5 0.00 0.00 0.01 76 1002.7
20260508210921 73 248 0.9 1.7 0.00 0.00 0.01 77 1003.0
20260508210421 73 180 2.6 2.6 0.00 0.00 0.01 77 1003.0
20260508205922 73 180 1.7 1.7 0.00 0.00 0.01 79 1003.0
20260508205421 72 203 0.9 1.7 0.00 0.00 0.01 81 1003.0
20260508204921 71 248 2.6 4.3 0.00 0.00 0.01 81 1002.7
20260508204423 71 248 2.6 3.5 0.00 0.00 0.01 82 1002.4
20260508203922 70 248 7.8 10.4 0.00 0.00 0.01 82 1002.4
20260508203421 70 203 4.3 7.0 0.00 0.00 0.01 86 1002.4
20260508202922 69 248 3.5 4.3 0.00 0.00 0.01 90 1002.4
20260508202421 68 180 3.5 4.3 0.00 0.00 0.01 91 1002.7
20260508201921 68 270 0.9 1.7 0.00 0.00 0.01 90 1002.7